Shawano, WI

6:38 AM CST on February 19, 2017 (GMT -0600)
Shawano

Weather History for KEZS - October, 2013

Change the Weather History Date:

Wednesday, October 30, 2013

  Actual Average (KCLI) Record (KCLI)
Temperature  
Mean Temperature 48 °F -  
Max Temperature 56 °F 52 °F 72 °F (1953)
Min Temperature 40 °F 31 °F 16 °F (1988)
Degree Days  
Heating Degree Days 17    
Moisture  
Dew Point 43 °F    
Average Humidity 87    
Maximum Humidity 95    
Minimum Humidity 75    
Precipitation  
Precipitation 0.00 in - - ()
Sea Level Pressure  
Sea Level Pressure 30.01 in    
Wind  
Wind Speed 3 mph (East)    
Max Wind Speed 10 mph    
Max Gust Speed 17 mph    
Visibility 7 miles    
Events Fog , Rain    
Averages and records for this station are not official NWS values.
T = Trace of Precipitation, MM = Missing Value Source: NWS Daily Summary

Daily Weather History Graph

Daily Weather History Graph

Search for Another Location

Airport or City:

Trip Planner

Search our weather history database for the weather conditions in past years. The results will help you decide how hot, cold, wet, or windy it might be!

Date:

Astronomy

Oct. 30, 2013 Rise Set
Actual Time 7:29 AM CDT 5:45 PM CDT
Civil Twilight 6:59 AM CDT 6:15 PM CDT
Nautical Twilight 6:25 AM CDT 6:49 PM CDT
Astronomical Twilight 5:51 AM CDT 7:23 PM CDT
Moon 3:08 AM CDT (10/30) 3:39 PM CDT (10/30)
Length of Visible Light 11h 16m
Length of Day
10h 15m
Waning Crescent, 17% of the Moon is Illuminated
Oct 30
Waning Crescent
Nov 3
New
Nov 9
First Quarter
Nov 17
Full
Nov 25
Last Quarter

Hourly Weather History & Observations

Time (CDT) Temp. Windchill Dew Point Humidity Pressure Visibility Wind Dir Wind Speed Gust Speed Precip Events Conditions
12:15 AM 41.9 °F 40.0 °F 37.6 °F 85% 30.16 in 10.0 mi ENE 3.5 mph - N/A   Overcast
12:35 AM 42.3 °F - 37.0 °F 82% 30.16 in 10.0 mi Calm Calm - N/A   Overcast
12:55 AM 42.1 °F - 36.7 °F 81% 30.15 in 10.0 mi Calm Calm - N/A   Overcast
1:15 AM 42.3 °F 40.5 °F 36.9 °F 81% 30.15 in 10.0 mi NE 3.5 mph - N/A   Overcast
1:35 AM 41.5 °F - 36.9 °F 83% 30.14 in 10.0 mi Calm Calm - N/A   Overcast
1:55 AM 41.9 °F 40.0 °F 37.2 °F 83% 30.14 in 10.0 mi NE 3.5 mph - N/A   Overcast
2:15 AM 41.7 °F - 37.0 °F 83% 30.14 in 10.0 mi Calm Calm - N/A   Overcast
2:35 AM 41.7 °F 39.8 °F 36.9 °F 83% 30.14 in 10.0 mi NNE 3.5 mph - N/A   Overcast
2:55 AM 40.8 °F 36.9 °F 36.5 °F 85% 30.14 in 10.0 mi NNE 5.8 mph - N/A   Overcast
3:15 AM 40.6 °F - 36.7 °F 86% 30.14 in 10.0 mi Calm Calm - N/A   Overcast
3:35 AM 40.8 °F - 36.9 °F 86% 30.13 in 10.0 mi Calm Calm - N/A   Overcast
3:55 AM 41.0 °F 39.0 °F 37.0 °F 86% 30.12 in 10.0 mi East 3.5 mph - N/A   Overcast
4:15 AM 40.5 °F - 36.5 °F 86% 30.11 in 10.0 mi Calm Calm - N/A   Overcast
4:35 AM 41.0 °F 39.0 °F 37.4 °F 87% 30.11 in 10.0 mi East 3.5 mph - N/A   Overcast
4:55 AM 41.2 °F 38.2 °F 37.6 °F 87% 30.12 in 10.0 mi NNE 4.6 mph - N/A   Overcast
5:15 AM 41.0 °F - 37.6 °F 88% 30.12 in 10.0 mi Calm Calm - N/A   Overcast
5:35 AM 41.5 °F 38.6 °F 38.1 °F 88% 30.12 in 10.0 mi NE 4.6 mph - N/A   Overcast
5:55 AM 41.4 °F 39.4 °F 37.9 °F 88% 30.12 in 10.0 mi ENE 3.5 mph - N/A   Light Drizzle
6:15 AM 41.2 °F 39.2 °F 37.8 °F 88% 30.12 in 10.0 mi ENE 3.5 mph - N/A   Overcast
6:35 AM 41.2 °F - 37.9 °F 88% 30.12 in 10.0 mi Calm Calm - N/A   Light Drizzle
6:55 AM 41.4 °F - 38.5 °F 89% 30.11 in 10.0 mi Calm Calm - N/A   Light Drizzle
7:15 AM 41.4 °F 39.4 °F 38.5 °F 89% 30.11 in 10.0 mi ENE 3.5 mph - N/A   Light Drizzle
7:35 AM 41.2 °F 39.2 °F 38.5 °F 90% 30.10 in 10.0 mi NE 3.5 mph - N/A   Overcast
7:55 AM 41.4 °F - 38.7 °F 90% 30.11 in 10.0 mi Calm Calm - N/A   Light Drizzle
8:15 AM 41.5 °F - 39.2 °F 91% 30.11 in 10.0 mi Calm Calm - N/A   Overcast
8:35 AM 41.9 °F 40.0 °F 39.4 °F 91% 30.11 in 10.0 mi ENE 3.5 mph - N/A   Light Drizzle
8:55 AM 42.3 °F - 39.7 °F 91% 30.11 in 7.0 mi Calm Calm - N/A   Overcast
9:15 AM 42.4 °F 40.7 °F 40.1 °F 91% 30.09 in 10.0 mi ENE 3.5 mph - N/A   Overcast
9:35 AM 42.6 °F 40.9 °F 40.1 °F 91% 30.09 in 7.0 mi ENE 3.5 mph - N/A   Overcast
9:55 AM 43.3 °F 41.7 °F 40.8 °F 91% 30.09 in 10.0 mi NE 3.5 mph - N/A   Overcast
10:15 AM 43.9 °F 41.3 °F 41.2 °F 90% 30.08 in 10.0 mi ENE 4.6 mph - N/A   Overcast
10:35 AM 45.1 °F - 41.9 °F 88% 30.09 in 7.0 mi Calm Calm - N/A   Overcast
10:55 AM 44.6 °F - 41.4 °F 88% 30.09 in 7.0 mi Calm Calm - N/A   Overcast
11:15 AM 44.6 °F - 41.4 °F 88% 30.08 in 7.0 mi Calm Calm - N/A   Overcast
11:35 AM 45.5 °F - 42.1 °F 88% 30.07 in 7.0 mi Calm Calm - N/A   Overcast
11:55 AM 46.2 °F 44.1 °F 42.8 °F 88% 30.05 in 7.0 mi NNE 4.6 mph - N/A   Overcast
12:15 PM 47.5 °F - 43.5 °F 86% 30.04 in 7.0 mi NNE 3.5 mph - N/A   Overcast
12:35 PM 48.0 °F - 43.7 °F 85% 30.05 in 7.0 mi Calm Calm - N/A   Overcast
12:55 PM 50.4 °F - 44.6 °F 81% 30.03 in 10.0 mi Calm Calm - N/A   Overcast
1:15 PM 50.2 °F - 43.9 °F 79% 30.02 in 7.0 mi Calm Calm - N/A   Overcast
1:35 PM 50.9 °F - 44.2 °F 78% 30.01 in 7.0 mi Calm Calm - N/A   Overcast
1:55 PM 51.1 °F - 44.2 °F 77% 29.99 in 7.0 mi NNE 4.6 mph - N/A   Overcast
2:15 PM 51.3 °F - 44.2 °F 77% 29.99 in 4.0 mi North 3.5 mph - N/A   Haze
2:35 PM 53.2 °F - 45.5 °F 75% 29.97 in 2.5 mi Calm Calm - N/A   Haze
2:55 PM 56.1 °F - 48.2 °F 75% 29.96 in 7.0 mi SSE 9.2 mph - N/A   Overcast
3:15 PM 55.4 °F - 48.7 °F 78% 29.95 in 7.0 mi SSE 8.1 mph - N/A   Overcast
3:35 PM 54.9 °F - 48.7 °F 80% 29.94 in 5.0 mi SSE 6.9 mph - N/A   Haze
3:55 PM 54.9 °F - 48.7 °F 80% 29.93 in 7.0 mi SSE 4.6 mph - N/A   Overcast
4:15 PM 54.9 °F - 48.7 °F 80% 29.92 in 7.0 mi SSE 5.8 mph - N/A   Overcast
4:35 PM 55.0 °F - 48.6 °F 79% 29.91 in 7.0 mi SE 5.8 mph - N/A   Overcast
4:55 PM 54.9 °F - 48.6 °F 79% 29.89 in 7.0 mi SE 8.1 mph - N/A   Overcast
5:15 PM 54.7 °F - 48.7 °F 80% 29.88 in 5.0 mi SSE 10.4 mph 17.3 mph N/A   Haze
5:35 PM 54.5 °F - 48.6 °F 80% 29.88 in 5.0 mi SE 4.6 mph - N/A   Haze
5:55 PM 54.0 °F - 48.9 °F 83% 29.88 in 4.0 mi SE 9.2 mph - N/A   Haze
6:15 PM 53.4 °F - 49.1 °F 85% 29.87 in 2.5 mi SE 6.9 mph - N/A Rain Rain
7:55 PM 52.2 °F - 50.4 °F 94% 29.86 in 0.8 mi South 3.5 mph - N/A   Overcast
8:15 PM 52.3 °F - 50.7 °F 94% 29.84 in 0.8 mi SE 5.8 mph - N/A   Overcast
8:35 PM 52.3 °F - 50.7 °F 94% 29.83 in 0.5 mi Calm Calm - N/A Fog Fog
8:55 PM 52.3 °F - 50.9 °F 95% 29.82 in 0.5 mi SSE 4.6 mph - N/A Fog Fog
9:15 PM 52.7 °F - 50.9 °F 94% 29.80 in 0.5 mi Calm Calm - N/A Fog Fog
9:35 PM 52.7 °F - 51.1 °F 94% 29.79 in 0.2 mi SSE 3.5 mph - N/A Fog Fog
9:55 PM 52.7 °F - 51.3 °F 95% 29.78 in 0.2 mi SSE 3.5 mph - N/A Fog Fog
10:15 PM 52.9 °F - 51.4 °F 95% 29.77 in 0.2 mi Calm Calm - N/A Fog Fog
10:35 PM 53.2 °F - 51.8 °F 95% 29.77 in 0.2 mi Calm Calm - N/A Fog Fog
10:55 PM 53.4 °F - 52.0 °F 95% 29.77 in 0.2 mi Calm Calm - N/A Fog Fog
11:15 PM 53.1 °F - 51.8 °F 95% 29.77 in 0.2 mi NW 3.5 mph - N/A Fog Fog
11:35 PM 53.2 °F - 51.8 °F 95% 29.77 in 0.2 mi Calm Calm - N/A Fog Fog
11:55 PM 53.1 °F - 51.8 °F 95% 29.75 in 0.2 mi Calm Calm - N/A Fog Fog